Location: Ergnies
(50.0854°N, 2.0375°E)
Time: 18:25:51
(UTC+00:00)

Cosmos 1633 Rocket - Visible Passes

Search period start: 11 April 2026 00:00
Search period end: 21 April 2026 00:00
Orbit: 600 x 615 km, 82.5° (Epoch: 11 April)

Date Brightness Start Highest point End Pass type
(mag) Time Alt. Az. Time Alt. Az. Time Alt. Az.
11 Apr 5.5 20:29:52 10° WSW 20:33:27 24° WNW 20:37:03 10° NNW visible
12 Apr 6.1 20:44:43 10° WSW 20:47:30 16° WNW 20:50:15 10° NNW visible
13 Apr 3.3 19:18:46 10° SSW 19:23:09 77° WNW 19:27:32 10° N visible
13 Apr 6.6 21:00:35 10° WNW 21:01:36 11° WNW 21:02:36 10° NW visible
14 Apr 4.3 19:32:46 10° SSW 19:36:59 47° WNW 19:41:14 10° N visible
15 Apr 5.2 19:47:02 10° SW 19:50:54 30° WNW 19:54:48 10° N visible
16 Apr 6.6 04:12:31 10° NNE 04:14:52 14° ENE 04:17:12 10° E visible
16 Apr 6.0 20:01:39 10° WSW 20:04:54 20° WNW 20:08:10 10° NNW visible
17 Apr 6.5 20:16:47 10° W 20:18:57 13° WNW 20:21:09 10° NNW visible
20 Apr 6.8 03:30:53 10° NE 03:32:13 11° ENE 03:33:33 10° ENE visible
